User: anonymous   Login
Location: Unspecified
(0.0000°N, 0.0000°E)
Time: 15:53:26
(UTC+00:00)
Language:

OBJECT L - Orbit

View from above orbital plane
View from above orbital plane
View from above satellite
View from above satellite

Ground track
Ground track

The orbit data is extracted from the following two-line orbital elements,

1 43729U 18096L   18345.48766096  .00002263  00000-0  89981-4 0  9998
2 43729  97.4846  50.4968 0017121 284.4159  75.5179 15.26237254  1879
Epoch (UTC): 11 December 2018 11:42:13
Eccentricity: 0.0017121
inclination: 97.4846°
perigee height: 475 km
apogee height: 499 km
right ascension of ascending node: 50.4968°
argument of perigee: 284.4159°
revolutions per day: 15.26237254
mean anomaly at epoch: 75.5179°
orbit number at epoch: 187

The dashed part of the orbit path shows where the satellite is in the earth's shadow,  

DLR